Вернуться в каталог

ONDOSAT-OWL-5

АктивенПогодаVLEO
NORAD 62396·PAYLOAD·🇲🇳 Mongolia
Это название спутника еще не подтверждено официальными источниками.

Запущен Dec 21, 2024 с Vandenberg Space Force Base

Loading…

Ближайшие Пролёты (ближайшие 24 часа)

TLE

СвежийSource: Space-Track

Эпоха: Sep 13, 2026, 23:26 UTC

1 62396U 24247V   26256.97694171  .00064692  00000-0  73762-3 0  9995
2 62396  44.9893 102.9030 0007884 213.1537 146.8866 15.61389991 97310

Отслеживайте ONDOSAT-OWL-5 в реальном времени с AllMySat

Download on the App Store